カタログに戻る

STARLINK-37005

運用中通信SSO
NORAD 68107·PAYLOAD·🇺🇸 United States

打ち上げ Mar 8, 2026 から Vandenberg Space Force Base

Loading…

次のパス (今後24時間)

TLE

最新Source: CelesTrak SupGP

元期: Sep 15, 2026, 04:13 UTC

1 68107C 26044G   26258.17618056  .00042898  00000+0  13320-2 0  2584
2 68107  97.2849 217.1417 0002000  96.0781  58.8478 15.33407394    19

AllMySatでSTARLINK-37005をリアルタイム追跡

Download on the App Store